Powrót do katalogu

FENGYUN 1C DEB

AktywnySSO
NORAD 38832·DEBRIS·🇨🇳 China

Wystrzelony May 10, 1999 z Taiyuan Satellite Launch Center

Loading…

Następne Przeloty (najbliższe 24 godziny)

TLE

ŚwieżeSource: Space-Track

Epoka: Sep 11, 2026, 20:50 UTC

1 38832U 99025EVY 26254.86859252  .00001119  00000-0  69643-3 0  9996
2 38832  99.2464 309.6949 0085113   7.8093 352.4377 14.05333979675930

Śledź FENGYUN 1C DEB w czasie rzeczywistym z AllMySat

Download on the App Store